K7JGC-9 Weather Reports


time (UTC)temp
F
wind
direction
speed
knots
gust
knots
rain 1hr
in
rain 24hr
in
rain mn
in
humidity
%
barometer
mb
20260507062404 56 179 0.0 0.0 0.00 0.00 0.00 77 1022.1
20260507055404 56 177 0.0 0.0 0.00 0.00 0.00 77 1022.2
20260507052400 55 180 0.0 0.0 0.00 0.00 0.00 78 1022.3
20260507045359 57 177 0.0 0.0 0.00 0.00 0.00 75 1022.1
20260507042355 57 178 0.0 0.0 0.00 0.00 0.00 74 1021.9
20260507035350 59 177 0.0 0.0 0.00 0.00 0.00 73 1021.8
20260507032350 60 180 0.0 0.0 0.00 0.00 0.00 72 1021.3
20260507025349 61 178 0.0 0.0 0.00 0.00 0.00 72 1020.8
20260507022347 62 177 0.0 0.0 0.00 0.00 0.00 70 1020.7
20260507015346 64 176 0.0 0.0 0.00 0.00 0.00 68 1020.9
20260507012343 66 179 0.0 0.0 0.00 0.00 0.00 65 1020.8
20260507005339 68 180 0.0 0.0 0.00 0.00 0.00 63 1020.7
20260507002334 69 175 0.0 0.0 0.00 0.00 0.00 64 1020.4
20260506235332 69 179 0.0 0.0 0.00 0.00 0.00 64 1020.4
20260506232330 70 177 0.0 0.0 0.00 0.00 0.00 63 1020.5
20260506225329 71 180 0.0 0.0 0.00 0.00 0.00 61 1020.8
20260506222325 70 182 0.0 0.0 0.00 0.00 0.00 62 1021.0
20260506215324 68 177 0.0 0.0 0.00 0.00 0.00 65 1021.2
20260506212323 68 179 0.0 0.0 0.00 0.00 0.00 67 1021.3
20260506205319 67 177 0.0 0.0 0.00 0.00 0.00 67 1021.7
20260506202314 65 178 0.0 0.0 0.00 0.00 0.00 69 1021.6
20260506195312 63 175 0.0 0.0 0.00 0.00 0.00 73 1021.6
20260506192309 63 177 0.0 0.0 0.00 0.00 0.00 72 1022.0
20260506185307 62 177 0.0 0.0 0.00 0.00 0.00 74 1021.9
20260506182306 62 180 0.0 0.0 0.00 0.00 0.00 74 1021.8
20260506175306 61 182 0.0 0.0 0.00 0.00 0.00 75 1021.7
20260506172306 61 176 0.0 0.0 0.00 0.00 0.00 74 1021.5
20260506165258 60 180 0.0 0.0 0.00 0.00 0.00 77 1021.6
20260506162255 60 181 0.0 0.0 0.00 0.00 0.00 78 1021.5
20260506155251 59 176 0.0 0.0 0.00 0.00 0.00 79 1020.9
20260506152248 57 178 0.0 0.0 0.00 0.00 0.00 82 1021.6
20260506145247 57 176 0.0 0.0 0.00 0.00 0.00 82 1021.4
20260506142244 57 179 0.0 0.0 0.00 0.00 0.00 82 1020.9
20260506135239 57 177 0.0 0.0 0.00 0.00 0.00 85 1020.6
20260506132238 56 177 0.0 0.0 0.00 0.00 0.00 87 1020.5
20260506125233 56 177 0.0 0.0 0.00 0.00 0.00 86 1020.1
20260506122229 57 177 0.0 0.0 0.00 0.00 0.00 85 1020.1
20260506115226 57 177 0.0 0.0 0.00 0.00 0.00 84 1019.8
20260506112222 57 177 0.0 0.0 0.00 0.00 0.00 84 1019.8
20260506105223 57 177 0.0 0.0 0.00 0.00 0.00 83 1019.3
20260506102220 57 177 0.0 0.0 0.00 0.00 0.00 84 1018.9
20260506095214 57 176 0.0 0.0 0.00 0.00 0.00 83 1018.6
20260506092211 58 176 0.0 0.0 0.00 0.00 0.00 82 1018.3
20260506085211 58 178 0.0 0.0 0.00 0.00 0.00 82 1018.3
20260506082208 58 178 0.0 0.0 0.00 0.00 0.00 82 1018.5
20260506072159 58 177 0.0 0.0 0.00 0.00 0.00 87 1018.0